[[{"header":{"parameterUnit":"m.s-1","parameterCategory":1,"la1":30.2991,"la2":30.254,"lo1":-89.0895,"lo2":-89.0444,"dy":0.0017,"dx":0.0017,"nx":28,"ny":28,"refTime":"2023-10-29T03:00:00:Z","depth":0,"parameterNumber":2,"parameterNumberName":"U-component_of_WINDS"},"data":[0,0,0,0,0,0,0,0,0,0,0,0,0,0,0,0,0,0,0,0,0,0,0,0,0,0,0,0,0,0,0,0,0,0,0,0,0,0,0,0,0,0,0,0,0,0,0,0,0,0,0,0,0,0,0,0,0,0,-3.0331,-3.0331,0,-3.034,-3.034,-3.034,-3.026,-3.0258,-3.0256,-3.0254,-3.0265,-3.0268,-3.027,0,0,0,0,0,0,0,0,0,0,0,0,0,-3.0251,-3.0253,-3.0331,-3.0331,-3.0331,-3.034,-3.034,-3.034,-3.026,-3.0258,-3.0255,-3.0253,-3.0265,-3.0267,-3.027,0,0,0,0,0,0,0,0,0,0,0,0,0,-3.0276,-3.0254,-3.0331,-3.0293,-3.0289,-3.034,-3.034,-3.034,-3.0261,-3.0258,-3.0254,-3.0251,-3.0264,-3.0267,-3.0271,-3.0359,0,0,-3.0282,-3.0283,0,0,0,0,0,0,0,0,-3.0274,-3.0279,-3.0298,-3.0295,-3.0292,-3.0295,-3.0316,-3.0346,-3.0262,-3.0272,-3.0254,-3.025,-3.0278,-3.028,-3.0289,-3.036,-3.036,-3.0282,-3.0284,-3.0286,-3.0287,0,0,0,0,0,0,0,-3.0273,-3.0278,-3.0334,-3.0299,-3.0295,-3.0277,-3.0276,-3.0321,-3.0294,-3.0271,-3.0265,-3.0267,-3.0276,-3.0286,-3.0289,-3.036,-3.0282,-3.0285,-3.0287,-3.0289,-3.0507,-3.051,0,0,0,0,0,0,-3.0276,-3.0277,-3.0334,-3.0335,-3.0274,-3.0281,-3.028,-3.0298,-3.0293,-3.0289,-3.027,-3.0263,-3.0282,-3.0285,-3.0289,-3.0393,-3.0286,-3.0289,-3.0291,-3.0503,-3.0508,-3.0512,0,0,0,0,0,0,-3.0274,-3.0281,-3.0334,-3.0304,-3.0309,-3.0286,-3.0305,-3.0299,-3.0309,-3.0292,-3.0287,-3.0285,-3.0279,-3.0284,-3.0343,-3.0393,-3.029,-3.0294,-3.0499,-3.0505,-3.051,-3.0602,0,0,0,0,0,0,-3.0272,-3.0281,-3.0313,-3.0305,-3.0311,-3.0386,-3.0308,-3.0302,-3.0315,-3.0307,-3.0305,-3.0302,-3.0277,-3.0338,-3.0346,-3.0396,-3.0297,-3.0494,-3.0502,-3.0508,-3.0595,-3.061,-3.0624,0,0,0,0,0,-3.027,-3.0339,-3.0315,-3.0322,-3.035,-3.0389,-3.0392,-3.0361,-3.032,-3.0352,-3.0342,-3.0302,-3.0387,-3.0345,-3.0353,-3.0405,-3.0491,-3.05,-3.0508,-3.0588,-3.0607,-3.0623,0,0,0,0,0,0,-3.0353,-3.0337,-3.031,-3.0379,-3.0386,-3.0375,-3.0415,-3.0382,-3.0402,-3.0393,-3.0355,-3.0356,-3.0421,-3.0419,-3.0373,-3.0492,-3.0432,-3.0442,-3.049,-3.0508,-3.0522,-3.0521,-3.0299,0,0,0,0,0,-3.0379,-3.041,-3.0395,-3.0457,-3.0462,-3.0439,-3.0454,-3.043,-3.0436,-3.0439,-3.0432,-3.0441,-3.0469,-3.0489,-3.0514,-3.0595,-3.0594,-3.0635,-3.065,-3.0662,-3.0671,-3.0715,-3.0734,-3.0539,-3.0539,-3.0539,0,0,-3.0434,-3.0429,-3.0451,-3.0474,-3.0476,-3.0511,-3.0441,-3.048,-3.0506,-3.0445,-3.0499,-3.0496,-3.0503,-3.0574,-3.0605,-3.0574,-3.0725,-3.0672,-3.0682,-3.0684,-3.0726,-3.0744,-3.0761,-3.0544,-3.0543,-3.0543,0,0,-3.055,-3.055,-3.0602,-3.0606,-3.0611,-3.0596,-3.0609,-3.0604,-3.0599,-3.0653,-3.0609,-3.0641,-3.069,-3.0698,-3.0708,-3.0833,-3.0798,-3.0843,-3.0918,-3.0962,-3.0978,-3.0991,-3.1036,-3.1053,-3.0853,-3.0853,-3.0853,0,-3.0617,-3.0666,-3.0633,-3.0676,-3.0688,-3.0635,-3.0689,-3.0696,-3.0709,-3.072,-3.0686,-3.0749,-3.075,-3.0823,-3.0854,-3.0864,-3.0879,-3.0842,-3.0978,-3.0991,-3.1003,-3.1046,-3.1063,-3.0858,-3.0858,-3.0857,-3.0857,0,-3.0749,-3.0784,-3.0826,-3.084,-3.0858,-3.0906,-3.0883,-3.0905,-3.0882,-3.0871,-3.0929,-3.0929,-3.0954,-3.097,-3.0947,-3.1041,-3.1022,-3.0984,-3.0922,-3.1028,-3.1067,-3.1083,-3.0866,-3.0864,-3.0862,-3.0861,0,0,-3.0914,-3.0912,-3.0928,-3.0935,-3.0939,-3.0966,-3.1014,-3.1038,-3.1059,-3.1072,-3.1112,-3.1157,-3.1123,-3.1135,-3.1113,-3.1152,-3.1253,-3.1109,-3.1109,-3.1136,-3.1358,-3.1386,-3.1405,-3.123,-3.1233,-3.1236,-3.1357,0,-3.1028,-3.1106,-3.108,-3.1161,-3.1194,-3.1147,-3.1189,-3.1198,-3.119,-3.1219,-3.1211,-3.1244,-3.1195,-3.1203,-3.124,-3.1233,-3.1297,-3.1224,-3.1268,-3.127,-3.1266,-3.1425,-3.1454,-3.1569,-3.1373,-3.1375,-3.1377,0,-3.1169,-3.1188,-3.1272,-3.1273,-3.1286,-3.1323,-3.1345,-3.1373,-3.1383,-3.1375,-3.1391,-3.1362,-3.1412,-3.1353,-3.1421,-3.1372,-3.139,-3.139,-3.1394,-3.1395,-3.1328,-3.1431,-3.1604,-3.1621,-3.1401,-3.1399,-3.1397,0,-3.1281,-3.1328,-3.1384,-3.1392,-3.1394,-3.1422,-3.1425,-3.1431,-3.1449,-3.147,-3.1481,-3.1508,-3.1522,-3.1545,-3.1525,-3.1484,-3.1598,-3.1536,-3.1594,-3.1594,-3.1617,-3.1616,-3.1795,-3.1631,-3.1631,-3.1631,-3.163,0,-3.1409,-3.1463,-3.1435,-3.147,-3.1529,-3.1501,-3.1561,-3.1559,-3.1566,-3.1601,-3.1564,-3.1598,-3.1571,-3.1604,-3.1589,-3.1649,-3.1656,-3.1652,-3.1648,-3.1655,-3.1655,-3.1664,-3.1655,-3.1635,-3.1634,-3.1633,-3.1633,0,-3.1543,-3.1526,-3.1585,-3.1584,-3.1585,-3.1629,-3.1628,-3.1662,-3.1653,-3.1699,-3.1708,-3.1695,-3.1732,-3.1716,-3.1755,-3.1745,-3.1823,-3.1808,-3.1819,-3.1814,-3.1873,-3.1867,-3.2063,-3.2087,-3.1909,-3.191,-3.1912,0,-3.1625,-3.1665,-3.1669,-3.1689,-3.1694,-3.1728,-3.1746,-3.1722,-3.1742,-3.1759,-3.1792,-3.1826,-3.1851,-3.1913,-3.1908,-3.1939,-3.1925,-3.1991,-3.1929,-3.1936,-3.1925,-3.1923,-3.1927,-3.2003,-3.2005,-3.2007,-3.2008,0,-3.1772,-3.1763,-3.179,-3.1816,-3.1838,-3.1857,-3.1873,-3.1893,-3.1869,-3.1896,-3.1933,-3.1953,-3.1994,-3.2029,-3.2057,-3.2062,-3.2032,-3.2029,-3.2043,-3.205,-3.2055,-3.2053,-3.1852,-3.2023,-3.2022,-3.2021,-3.202,-3.2019,-3.1882,-3.1916,-3.1925,-3.1957,-3.1967,-3.1984,-3.2016,-3.2012,-3.2042,-3.2073,-3.2058,-3.2102,-3.2115,-3.215,-3.2159,-3.2195,-3.2169,-3.2191,-3.2196,-3.2201,-3.2209,-3.2051,-3.22,-3.22,-3.22,-3.2199,-3.2199,0,-3.2027,-3.2031,-3.2061,-3.2085,-3.2112,-3.2082,-3.2099,-3.2124,-3.2163,-3.2177,-3.2204,-3.2249,-3.2284,-3.2283,-3.2316,-3.2345,-3.2333,-3.2355,-3.2352,-3.2354,-3.223,-3.2214,-3.2365,-3.2365,-3.2365,-3.2364,-3.2364,-3.2364,-3.2105,-3.2162,-3.2155,-3.2218,-3.2222,-3.2264,-3.2277,-3.2293,-3.2305,-3.2356,-3.2385,-3.2384,-3.2394,-3.2428,-3.246,-3.2459,-3.2473,-3.25,-3.2495,-3.2379,-3.2362,-3.2346,-3.2331,-3.2504,-3.2504,-3.2615,-3.2616,-3.2617]},{"header":{"parameterUnit":"m.s-1","parameterCategory":1,"la1":30.2991,"la2":30.254,"lo1":-89.0895,"lo2":-89.0444,"dy":0.0017,"dx":0.0017,"nx":28,"ny":28,"refTime":"2023-10-29T03:00:00:Z","depth":0,"parameterNumber":3,"parameterNumberName":"V-component_of_WINDS"},"data":[0,0,0,0,0,0,0,0,0,0,0,0,0,0,0,0,0,0,0,0,0,0,0,0,0,0,0,0,0,0,0,0,0,0,0,0,0,0,0,0,0,0,0,0,0,0,0,0,0,0,0,0,0,0,0,0,0,0,1.6363,1.6363,0,1.6345,1.6344,1.6344,1.6435,1.6438,1.644,1.6443,1.6421,1.6418,1.6415,0,0,0,0,0,0,0,0,0,0,0,0,0,1.6475,1.6473,1.6363,1.6363,1.6363,1.6345,1.6344,1.6344,1.6435,1.6438,1.6441,1.6444,1.6422,1.6418,1.6414,0,0,0,0,0,0,0,0,0,0,0,0,0,1.6438,1.6472,1.6363,1.6406,1.6409,1.6345,1.6344,1.6344,1.6434,1.6438,1.6442,1.6446,1.6423,1.6418,1.6414,1.6306,0,0,1.64,1.6398,0,0,0,0,0,0,0,0,1.644,1.6434,1.64,1.6403,1.6407,1.6396,1.6376,1.6331,1.6433,1.6424,1.6443,1.6448,1.6409,1.6406,1.6394,1.6305,1.6304,1.6399,1.6397,1.6395,1.6393,0,0,0,0,0,0,0,1.6443,1.6436,1.6356,1.6399,1.6403,1.6425,1.6424,1.6368,1.6395,1.6426,1.6432,1.6429,1.6412,1.6398,1.6394,1.6304,1.64,1.6396,1.6393,1.6391,1.6127,1.6123,0,0,0,0,0,0,1.644,1.6437,1.6356,1.6355,1.6434,1.642,1.6419,1.6396,1.6396,1.64,1.6426,1.6433,1.6404,1.6399,1.6393,1.6268,1.6395,1.639,1.6388,1.6132,1.6126,1.6122,0,0,0,0,0,0,1.6442,1.6432,1.6357,1.6398,1.639,1.6414,1.6387,1.6393,1.6379,1.6396,1.6401,1.6406,1.6407,1.64,1.6328,1.6268,1.6388,1.6384,1.6137,1.613,1.6124,1.6015,0,0,0,0,0,0,1.6445,1.6432,1.6392,1.6396,1.6388,1.6292,1.6383,1.639,1.6372,1.6381,1.6379,1.6382,1.6409,1.6334,1.6323,1.6264,1.6381,1.6142,1.6134,1.6126,1.6024,1.6005,1.599,0,0,0,0,0,1.6449,1.6361,1.6389,1.6379,1.6338,1.6288,1.6283,1.6317,1.6366,1.6326,1.6337,1.6382,1.6277,1.6326,1.6314,1.6253,1.6146,1.6136,1.6127,1.6031,1.6009,1.599,0,0,0,0,0,0,1.6347,1.6362,1.6394,1.6305,1.6295,1.6304,1.6253,1.6292,1.6266,1.6276,1.6318,1.6317,1.6238,1.6238,1.6293,1.6149,1.622,1.6207,1.6151,1.613,1.6113,1.6114,1.6377,0,0,0,0,0,1.6314,1.6274,1.6289,1.6209,1.6203,1.6228,1.6208,1.6235,1.6226,1.6222,1.6227,1.6216,1.618,1.6155,1.6124,1.6025,1.6026,1.5977,1.596,1.5946,1.5934,1.5883,1.5861,1.609,1.609,1.6091,0,0,1.6246,1.625,1.6221,1.6189,1.6184,1.614,1.6224,1.6174,1.6142,1.6214,1.6146,1.615,1.614,1.6054,1.6017,1.6052,1.5872,1.5934,1.5923,1.5918,1.5871,1.5849,1.583,1.6084,1.6085,1.6086,0,0,1.6099,1.6098,1.6032,1.6026,1.6018,1.6036,1.602,1.6024,1.6029,1.5963,1.6016,1.5978,1.5916,1.5907,1.5894,1.5746,1.5787,1.5735,1.5645,1.5594,1.5576,1.556,1.5507,1.5487,1.5723,1.5723,1.5723,0,1.6015,1.5952,1.5992,1.5939,1.5923,1.5988,1.5921,1.5913,1.5895,1.5882,1.5923,1.5847,1.5845,1.5758,1.5722,1.571,1.5693,1.5734,1.5576,1.556,1.5546,1.5495,1.5475,1.5717,1.5717,1.5718,1.5719,0,1.5849,1.5804,1.5752,1.5734,1.5712,1.5652,1.5683,1.5656,1.5686,1.57,1.5631,1.5631,1.5601,1.5583,1.561,1.55,1.5522,1.5568,1.564,1.5517,1.547,1.5451,1.5707,1.571,1.5712,1.5713,0,0,1.5635,1.5642,1.5622,1.5615,1.5612,1.5578,1.5522,1.5493,1.5469,1.5455,1.5408,1.5355,1.5399,1.5384,1.5412,1.5367,1.525,1.5419,1.542,1.5387,1.5128,1.5092,1.5069,1.5278,1.5274,1.5272,1.5128,0,1.5491,1.5395,1.543,1.5331,1.5291,1.5353,1.5304,1.5296,1.5308,1.5275,1.5289,1.525,1.5311,1.5302,1.5261,1.5272,1.5198,1.5284,1.5234,1.5231,1.5233,1.5045,1.5006,1.4871,1.511,1.5107,1.5105,0,1.5309,1.5289,1.5187,1.5192,1.5177,1.5131,1.5109,1.5077,1.507,1.5082,1.5067,1.5105,1.5049,1.5122,1.5046,1.5103,1.5086,1.5088,1.5084,1.5079,1.5159,1.5034,1.4829,1.4808,1.5077,1.5079,1.5081,0,1.5163,1.511,1.5043,1.5035,1.504,1.5007,1.5007,1.5005,1.4985,1.4966,1.4954,1.4927,1.4912,1.4891,1.492,1.4971,1.484,1.4915,1.4847,1.4846,1.4815,1.4817,1.4603,1.4806,1.4806,1.4806,1.4807,0,1.4997,1.4932,1.4977,1.4935,1.4864,1.4905,1.4833,1.4841,1.4838,1.4798,1.4851,1.4812,1.4854,1.482,1.4843,1.4776,1.4769,1.4777,1.4783,1.4771,1.477,1.4759,1.4768,1.4801,1.4802,1.4803,1.4804,0,1.4821,1.4849,1.4779,1.479,1.4791,1.4738,1.4747,1.4709,1.4726,1.4675,1.4665,1.469,1.4653,1.4681,1.4643,1.4658,1.457,1.4591,1.4572,1.4578,1.4508,1.4514,1.4279,1.425,1.4471,1.4469,1.4468,0,1.4713,1.4664,1.4671,1.4649,1.4646,1.4609,1.4591,1.463,1.4609,1.4598,1.4561,1.4528,1.4503,1.444,1.4455,1.4426,1.4446,1.4365,1.4441,1.4431,1.4443,1.4445,1.4441,1.4349,1.4346,1.4344,1.4343,0,1.4518,1.4535,1.4506,1.4483,1.446,1.4443,1.443,1.4408,1.4449,1.4422,1.4385,1.4366,1.4328,1.4294,1.4271,1.4272,1.4313,1.4319,1.4302,1.4288,1.4279,1.4282,1.4529,1.4324,1.4326,1.4327,1.4328,1.4329,1.4372,1.4332,1.4331,1.4298,1.4293,1.428,1.4245,1.4258,1.4227,1.42,1.4226,1.418,1.4176,1.415,1.4145,1.411,1.4143,1.4118,1.4112,1.4105,1.4094,1.4286,1.4106,1.4107,1.4108,1.4108,1.4109,0,1.418,1.4182,1.4152,1.4133,1.4107,1.4151,1.4139,1.4114,1.4074,1.4067,1.4043,1.4,1.3968,1.3981,1.3953,1.3922,1.3941,1.3913,1.3915,1.3915,1.4067,1.4084,1.3899,1.3899,1.3899,1.3899,1.3899,1.3899,1.4076,1.4011,1.4027,1.396,1.3963,1.392,1.391,1.3898,1.3893,1.3844,1.3818,1.3827,1.3828,1.3801,1.3774,1.3778,1.3765,1.373,1.3742,1.3883,1.3904,1.3924,1.394,1.3728,1.3727,1.3593,1.3591,1.359]}]]